{"data":{"norad_id":67447,"epoch":"2026-05-24T23:28:52.698144Z","epoch_age_seconds":76220,"freshness":"FRESH","line1":"1 67447U 26008C   26144.97838771  .00013730  00000+0  50733-3 0  9995","line2":"2 67447  43.0005 134.0269 0002324 282.4754  77.5837 15.27591929 21246","mean_motion":15.27591929,"eccentricity":0.0002324,"inclination_deg":43.0005,"raan_deg":134.0269,"arg_perigee_deg":282.4754,"mean_anomaly_deg":77.5837,"bstar":0.00050733,"rev_number":2124,"period_min":94.266012582474,"perigee_km":481.41884520715,"apogee_km":484.60790790218,"semimajor_km":6861.1503765547,"source":"CELESTRAK","updated_at":"2026-05-25T13:38:21.559465Z"}}